Location: B?dargowo
(53.3916°N, 14.4413°E)
Time: 10:40:42
(UTC+00:00)

Lacrosse 5 rocket - Pass Details

Date: 05 February 2023
Orbit: 454 x 614 km, 57.0° (Epoch: 19 March)

Event Time Altitude Azimuth Distance (km) Brightness Sun altitude
Rises 15:56:42 0° 293° (WNW) 2,473 5.4 -1.4°
Reaches altitude 10° 15:58:50 10° 295° (WNW) 1,600 4.3 -1.7°
Maximum altitude 16:02:23 71° 20° (NNE) 492 1.0 -2.2°
Drops below altitude 10° 16:06:01 10° 105° (ESE) 1,630 3.3 -2.7°
Enters shadow 16:09:11 -3° 109° (ESE) 2,932 4.6 -3.1°
Exits shadow 16:39:49 -67° 116° (ESE) 12,395 8.1 -7.4°
